weather.gov     
National Weather Service

Terminal Aerodrome Forecast
NWS Homepage
This page is being discontinued on March 12, 2014.
The same data is available at this site. Please update your bookmarks.
Thank you, and we apologize for the inconvenience.
Please send an email to SR-SRH.Webmaster@noaa.gov with any concerns.


Current Version
Previous Version:    01  02  03  04  05  06  07  08  09  10  11  12  13  14  15  16  17  18  19  20  21  22  23  24  25  26  27  28  29  30  
   31  32  33  34  35  36  37  38  39  40  41  42  43  
[Printable]
256
FTUS43 KGRR 231100
TAFBTL
TAF
KBTL 231128Z 2312/2412 00000KT 1/4SM FG VV001
     FM231400 16005KT 2SM BR BKN009
     FM231500 18005KT 5SM BR BKN015
     FM231630 19006KT P6SM BKN250
     FM231900 21009KT P6SM BKN200
     FM240400 21006KT 5SM BR VCSH BKN050 OVC100=


U.S. Dept. of Commerce
NOAA National Weather Service
1325 East West Highway
Silver Spring, MD 20910
E-mail: w-nws.webmaster@noaa.gov
Page last modified: May 16, 2007
NATIONAL WEATHER SERVICE: for Safety, for Work, for Fun - FOR LIFE